Location: Znojmo
(48.8500°N, 16.0500°E)
Time: 20:03:30
(UTC+02:00)

ISS - Pass Details

Date: 24 March 2019
Orbit: 408 x 410 km, 51.6° (Epoch: 22 April)

Event Time Altitude Azimuth Distance (km) Brightness Sun altitude
Rises 21:04:11 0° 267° (W) 2,334 0.7 -26.7°
Reaches altitude 10° 21:06:18 10° 272° (W) 1,474 -0.3 -27.0°
Enters shadow 21:07:22 19° 278° (W) 1,059 -1.1 -27.1°
